Back to catalog

METEOR 2-8 DEB

AlivePO
NORAD 36865·DEBRIS·🇷🇺 Russia

Launched Mar 25, 1982 from Plesetsk Cosmodrome

Loading…

Next Passes (next 24 hours)

TLE

AgingSource: Space-Track

Epoch: Sep 10, 2026, 08:02 UTC

1 36865U 82025BC  26253.33528872  .00001782  00000-0  68635-3 0  9990
2 36865  82.5361 114.1039 0020495  16.0697 344.1134 14.29766043151091

Track METEOR 2-8 DEB in real time with AllMySat

Download on the App Store